Henderson, KY

11:36 PM CST on December 09, 2019 (GMT -0600)
Henderson City-County

Weather History for KEHR - October, 2019

Change the Weather History Date:

Thursday, October 10, 2019

  Actual Average Record
Temperature  
Mean Temperature 68 °F -  
Max Temperature 84 °F 70 °F 89 °F (2010)
Min Temperature 51 °F 47 °F 28 °F (1964)
Cooling Degree Days 2    
Growing Degree Days 18 (Base 50)    
Moisture  
Dew Point 60 °F    
Average Humidity 77    
Maximum Humidity 100    
Minimum Humidity 49    
Precipitation  
Precipitation 0.00 in - - ()
Sea Level Pressure  
Sea Level Pressure 30.03 in    
Wind  
Wind Speed 5 mph (SE)    
Max Wind Speed 13 mph    
Max Gust Speed -    
Visibility 9 miles    
Events      
Averages and records for this station are not official NWS values.
T = Trace of Precipitation, MM = Missing Value Source: NWS Daily Summary

Daily Weather History Graph

Daily Weather History Graph

Search for Another Location

Airport or City:

Astronomy

Oct. 10, 2019 Rise Set
Actual Time 6:54 AM CDT 6:20 PM CDT
Civil Twilight 6:27 AM CDT 6:46 PM CDT
Nautical Twilight 5:57 AM CDT 7:17 PM CDT
Astronomical Twilight 5:27 AM CDT 7:47 PM CDT
Moon 5:17 PM CDT 3:42 AM CDT
Length of Visible Light 12h 19m
Length of Day
11h 26m
Waxing Gibbous, 91% of the Moon is Illuminated
Oct 10
Waxing Gibbous
Oct 13
Full
Oct 21
Last Quarter
Oct 27
New
Nov 4
First Quarter

Hourly Weather History & Observations

Time (CDT) Temp. Heat Index Dew Point Humidity Pressure Visibility Wind Dir Wind Speed Gust Speed Precip Events Conditions
12:56 AM 57.0 °F - 55.0 °F 93% 30.06 in 10.0 mi East 3.5 mph - N/A   Clear
1:56 AM 57.0 °F - 55.9 °F 96% 30.06 in 10.0 mi Calm Calm - N/A   Partly Cloudy
2:56 AM 55.0 °F - 54.0 °F 96% 30.06 in 10.0 mi Calm Calm - N/A   Clear
3:56 AM 52.0 °F - 51.1 °F 97% 30.06 in 4.0 mi Calm Calm - N/A   Clear
4:31 AM 51.8 °F - 51.8 °F 100% 30.07 in 1.5 mi Calm Calm - N/A   Clear
4:41 AM 53.6 °F - 53.6 °F 100% 30.07 in 3.0 mi East 3.5 mph - N/A   Clear
4:56 AM 54.0 °F - 54.0 °F 100% 30.07 in 7.0 mi Calm Calm - N/A   Clear
5:56 AM 55.0 °F - 55.0 °F 100% 30.06 in 10.0 mi ESE 3.5 mph - N/A   Scattered Clouds
6:56 AM 55.9 °F - 55.0 °F 97% 30.06 in 10.0 mi ESE 3.5 mph - N/A   Partly Cloudy
7:56 AM 60.1 °F - 57.9 °F 93% 30.07 in 10.0 mi East 3.5 mph - N/A   Scattered Clouds
8:56 AM 64.0 °F - 60.1 °F 87% 30.09 in 10.0 mi SSE 4.6 mph - N/A   Partly Cloudy
9:56 AM 72.0 °F - 63.0 °F 73% 30.08 in 10.0 mi South 9.2 mph - N/A   Scattered Clouds
10:56 AM 75.9 °F - 63.0 °F 64% 30.06 in 10.0 mi SSE 10.4 mph - N/A   Clear
11:56 AM 81.0 °F 82.5 °F 64.0 °F 56% 30.06 in 10.0 mi South 10.4 mph - N/A   Scattered Clouds
12:56 PM 82.0 °F 83.4 °F 64.0 °F 54% 30.04 in 10.0 mi South 12.7 mph - N/A   Clear
1:56 PM 84.0 °F 85.4 °F 64.0 °F 51% 30.00 in 10.0 mi SSE 9.2 mph - N/A   Partly Cloudy
2:56 PM 82.9 °F 84.0 °F 63.0 °F 51% 29.98 in 10.0 mi SSE 9.2 mph - N/A   Mostly Cloudy
3:56 PM 82.9 °F 83.7 °F 62.1 °F 49% 29.96 in 10.0 mi SSE 12.7 mph - N/A   Clear
4:56 PM 81.0 °F 82.2 °F 63.0 °F 54% 29.96 in 10.0 mi SSE 10.4 mph - N/A   Partly Cloudy
5:56 PM 80.1 °F 81.7 °F 64.0 °F 58% 29.96 in 10.0 mi SSE 9.2 mph - N/A   Partly Cloudy
6:56 PM 77.0 °F - 64.9 °F 66% 29.96 in 10.0 mi SE 6.9 mph - N/A   Mostly Cloudy
7:56 PM 73.9 °F - 64.0 °F 71% 29.97 in 10.0 mi SSE 5.8 mph - N/A   Clear
8:56 PM 73.0 °F - 64.9 °F 76% 29.98 in 10.0 mi SSE 8.1 mph - N/A   Clear
9:56 PM 73.0 °F - 64.9 °F 76% 29.99 in 10.0 mi South 10.4 mph - N/A   Partly Cloudy
10:56 PM 72.0 °F - 64.0 °F 76% 29.99 in 10.0 mi South 11.5 mph - N/A   Clear
11:56 PM 71.1 °F - 64.0 °F 78% 29.98 in 10.0 mi South 10.4 mph - N/A   Partly Cloudy